Time,TemperatureF,DewpointF,PressureIn,WindDirection,WindDirectionDegrees,WindSpeedMPH,WindSpeedGustMPH,Humidity,HourlyPrecipIn,Conditions,Clouds,dailyrainin,SolarRadiationWatts/m^2,SoftwareType,DateUTC
2013-08-04 00:02:00,74.0,9.0,-100.00,SW,220,10.0,16.0,8,0.00,,,0.00,0.000000,,2013-08-04 07:02:00,
2013-08-04 00:12:00,74.0,9.0,-100.00,SW,220,10.0,16.0,8,0.00,,,0.00,0.000000,,2013-08-04 07:12:00,
2013-08-04 00:22:00,74.0,9.0,-100.00,SW,220,10.0,16.0,8,0.00,,,0.00,0.000000,,2013-08-04 07:22:00,
2013-08-04 00:53:00,75.0,12.0,-100.00,SSW,212,11.0,16.0,9,0.00,,,0.00,0.000000,,2013-08-04 07:53:00,
2013-08-04 01:22:00,75.0,12.0,-100.00,SSW,212,11.0,16.0,9,0.00,,,0.00,0.000000,,2013-08-04 08:22:00,
2013-08-04 01:53:00,74.0,14.0,-100.00,SW,220,11.0,14.0,10,0.00,,,0.00,0.000000,,2013-08-04 08:53:00,
2013-08-04 02:02:00,74.0,14.0,-100.00,SW,220,11.0,14.0,10,0.00,,,0.00,0.000000,,2013-08-04 09:02:00,
2013-08-04 02:12:00,74.0,14.0,-100.00,SW,220,11.0,14.0,10,0.00,,,0.00,0.000000,,2013-08-04 09:12:00,
2013-08-04 02:22:00,74.0,14.0,-100.00,SW,220,11.0,14.0,10,0.00,,,0.00,0.000000,,2013-08-04 09:22:00,
2013-08-04 02:52:00,71.0,14.0,-100.00,SW,214,12.0,16.0,11,0.00,,,0.00,0.000000,,2013-08-04 09:52:00,
2013-08-04 03:02:00,71.0,14.0,-100.00,SW,214,12.0,16.0,11,0.00,,,0.00,0.000000,,2013-08-04 10:02:00,
2013-08-04 03:12:00,71.0,14.0,-100.00,SW,214,12.0,16.0,11,0.00,,,0.00,0.000000,,2013-08-04 10:12:00,
2013-08-04 03:22:00,71.0,14.0,-100.00,SW,214,12.0,16.0,11,0.00,,,0.00,0.000000,,2013-08-04 10:22:00,
2013-08-04 03:53:00,72.0,12.0,-100.00,SSW,213,9.0,14.0,10,0.00,,,0.00,0.000000,,2013-08-04 10:53:00,
2013-08-04 04:02:00,72.0,12.0,-100.00,SSW,213,9.0,14.0,10,0.00,,,0.00,0.000000,,2013-08-04 11:02:00,
2013-08-04 04:12:00,72.0,12.0,-100.00,SSW,213,9.0,14.0,10,0.00,,,0.00,0.000000,,2013-08-04 11:12:00,
2013-08-04 04:21:00,72.0,12.0,-100.00,SSW,213,9.0,14.0,10,0.00,,,0.00,0.000000,,2013-08-04 11:21:00,
2013-08-04 04:53:00,70.0,15.0,-100.00,SSW,206,11.0,14.0,12,0.00,,,0.00,0.000000,,2013-08-04 11:53:00,
2013-08-04 05:02:00,70.0,15.0,-100.00,SSW,206,11.0,14.0,12,0.00,,,0.00,0.000000,,2013-08-04 12:02:00,
2013-08-04 05:52:00,70.0,13.0,-100.00,SSW,202,11.0,15.0,11,0.00,,,0.00,0.000000,,2013-08-04 12:52:00,
2013-08-04 06:02:00,70.0,13.0,-100.00,SSW,202,11.0,15.0,11,0.00,,,0.00,0.000000,,2013-08-04 13:02:00,
2013-08-04 06:12:00,70.0,13.0,-100.00,SSW,202,11.0,15.0,11,0.00,,,0.00,0.000000,,2013-08-04 13:12:00,
2013-08-04 06:52:00,72.0,15.0,-100.00,SSW,202,12.0,18.0,11,0.00,,,0.00,6.000000,,2013-08-04 13:52:00,
2013-08-04 07:02:00,72.0,15.0,-100.00,SSW,202,12.0,18.0,11,0.00,,,0.00,6.000000,,2013-08-04 14:02:00,
2013-08-04 15:53:00,91.0,-99.9,-100.00,South,179,14.0,24.0,0,0.00,,,0.00,1105.000000,,2013-08-04 22:53:00,
2013-08-04 16:02:00,91.0,-99.9,-100.00,South,179,14.0,24.0,0,0.00,,,0.00,1105.000000,,2013-08-04 23:02:00,
2013-08-04 16:12:00,91.0,-99.9,-100.00,South,179,14.0,24.0,0,0.00,,,0.00,1105.000000,,2013-08-04 23:12:00,
2013-08-04 16:23:00,91.0,-99.9,-100.00,South,179,14.0,24.0,0,0.00,,,0.00,1105.000000,,2013-08-04 23:23:00,
2013-08-04 16:53:00,91.0,-99.9,-100.00,South,188,15.0,26.0,0,0.00,,,0.00,929.000000,,2013-08-04 23:53:00,
2013-08-04 17:02:00,91.0,-99.9,-100.00,South,188,15.0,26.0,0,0.00,,,0.00,929.000000,,2013-08-05 00:02:00,
2013-08-04 17:12:00,91.0,-99.9,-100.00,South,188,15.0,26.0,0,0.00,,,0.00,929.000000,,2013-08-05 00:12:00,
2013-08-04 17:22:00,91.0,-14.0,-100.00,South,188,15.0,26.0,0,0.00,,,0.00,929.000000,,2013-08-05 00:22:00,
2013-08-04 17:52:00,90.0,-15.0,-100.00,SSW,194,16.0,28.0,0,0.00,,,0.00,671.000000,,2013-08-05 00:52:00,
2013-08-04 18:02:00,90.0,-99.9,-100.00,SSW,194,16.0,28.0,0,0.00,,,0.00,671.000000,,2013-08-05 01:02:00,
2013-08-04 18:12:00,90.0,-99.9,-100.00,SSW,194,16.0,28.0,0,0.00,,,0.00,671.000000,,2013-08-05 01:12:00,
2013-08-04 18:22:00,90.0,-99.9,-100.00,SSW,194,16.0,28.0,0,0.00,,,0.00,671.000000,,2013-08-05 01:22:00,
2013-08-04 18:53:00,86.0,-99.9,-100.00,SSW,195,18.0,28.0,0,0.00,,,0.00,448.000000,,2013-08-05 01:53:00,
2013-08-04 19:02:00,86.0,-99.9,-100.00,SSW,195,18.0,28.0,0,0.00,,,0.00,448.000000,,2013-08-05 02:02:00,
2013-08-04 19:12:00,86.0,-99.9,-100.00,SSW,195,18.0,28.0,0,0.00,,,0.00,448.000000,,2013-08-05 02:12:00,
2013-08-04 19:22:00,86.0,-99.9,-100.00,SSW,195,18.0,28.0,0,0.00,,,0.00,448.000000,,2013-08-05 02:22:00,
2013-08-04 20:53:00,78.0,6.0,-100.00,SSW,200,14.0,28.0,6,0.00,,,0.00,5.000000,,2013-08-05 03:53:00,
2013-08-04 21:02:00,78.0,6.0,-100.00,SSW,200,14.0,28.0,6,0.00,,,0.00,5.000000,,2013-08-05 04:02:00,
2013-08-04 21:52:00,76.0,20.0,-100.00,SSW,209,16.0,23.0,12,0.00,,,0.00,0.000000,,2013-08-05 04:52:00,
2013-08-04 22:02:00,76.0,20.0,-100.00,SSW,209,16.0,23.0,12,0.00,,,0.00,0.000000,,2013-08-05 05:02:00,
2013-08-04 22:11:00,76.0,20.0,-100.00,SSW,209,16.0,23.0,12,0.00,,,0.00,0.000000,,2013-08-05 05:11:00,
2013-08-04 22:22:00,76.0,20.0,-100.00,SSW,209,16.0,23.0,12,0.00,,,0.00,0.000000,,2013-08-05 05:22:00,
2013-08-04 23:02:00,77.0,16.0,-100.00,SW,223,14.0,21.0,10,0.00,,,0.00,0.000000,,2013-08-05 06:02:00,
2013-08-04 23:12:00,77.0,16.0,-100.00,SW,223,14.0,21.0,10,0.00,,,0.00,0.000000,,2013-08-05 06:12:00,
2013-08-04 23:22:00,77.0,16.0,-100.00,SW,223,14.0,21.0,10,0.00,,,0.00,0.000000,,2013-08-05 06:22:00,
2013-08-04 23:52:00,72.0,18.0,-100.00,SSW,196,9.0,21.0,13,0.00,,,0.00,0.000000,,2013-08-05 06:52:00,